Temperature
16 16 16 16 16 16 16 16 16 16 16 16 16 16 16 16 16 15 15 15 15 15 15 15 15 15 15 15 15 15 15 15 15 15 15 15 15 15 15 15 15 15 15
16 16 16 16 16 16 16 16 16 16 15 15 15 15 15 15 15 15 15 15 15 15 15 15 15 15 15 15 15 15 15 15 15 15 15 15 14 14 14 14 14 15 15
16 16 16 16 16 16 16 16 15 15 15 15 15 15 15 15 15 15 15 15 15 15 15 15 15 15 15 15 15 15 15 14 14 14 14 14 14 14 14 14 14 14 14
16 16 16 16 16 16 15 15 15 15 15 15 15 15 15 15 15 15 15 15 15 15 15 15 15 14 14 14 14 14 14 14 14 14 14 14 14 14 14 14 14 14 14
16 16 16 15 15 15 15 15 15 15 15 15 15 15 15 15 15 15 15 15 15 15 15 15 14 14 14 14 14 14 14 14 14 14 14 14 14 14 14 14 14 14 14
16 16 16 15 15 15 15 15 15 15 15 15 15 14 14 14 14 14 14 14 14 14 14 14 14 14 14 14 14 14 14 14 14 14 14 14 14 14 13 13 13 13 13
16 16 15 15 15 15 15 15 15 15 15 15 14 14 14 14 14 14 14 14 14 14 14 14 14 14 14 14 14 14 14 13 14 13 13 13 13 13 13 13 13 13 13
16 16 15 15 15 15 15 15 15 14 14 14 14 14 14 14 14 14 14 14 14 14 14 14 14 14 13 13 13 13 13 13 13 13 13 13 13 13 13 13 13 13 13
15 15 15 15 15 15 15 15 14 14 14 14 14 14 14 13 13 14 13 13 13 14 14 13 13 13 13 13 13 13 13 13 13 13 13 13 13 13 13 13 13 13 13
15 15 15 15 15 15 15 14 14 14 14 14 14 14 14 13 13 13 13 13 13 13 13 13 13 13 13 13 13 13 13 13 13 13 13 13 13 13 13 13 13 13 13
15 15 15 15 15 15 14 14 14 14 14 14 14 14 14 13 13 13 13 13 13 13 13 13 13 13 13 13 13 13 13 13 13 13 13 13 13 13 13 13 13 13 13
15 15 15 15 14 14 14 14 14 14 14 14 14 14 13 13 13 13 13 13 13 13 13 13 13 13 13 13 13 13 12 12 12 12 12 12 12 12 12 12 12 12 12
15 15 15 14 14 14 14 14 14 14 13 13 13 13 13 13 13 13 13 13 12 12 12 12 12 12 12 12 12 12 12 12 12 12 12 12 12 12 12 12 12 12 12
15 15 14 14 14 14 14 14 14 14 13 13 13 13 13 13 13 13 13 13 12 12 12 12 12 12 12 12 12 12 12 12 12 12 12 12 12 12 12 12 12 12 12
15 14 14 14 14 14 14 14 14 13 13 13 13 13 13 13 13 13 13 13 12 12 12 12 12 12 12 12 12 12 12 12 12 12 12 12 12 11 11 11 12 12 12
14 14 14 14 14 14 14 14 13 13 13 13 13 13 12 12 12 12 12 12 12 12 12 12 12 12 12 12 12 11 11 11 11 11 11 11 11 11 11 11 11 11 12
14 14 14 14 13 13 13 13 13 13 13 13 12 12 12 12 12 12 12 12 12 12 12 12 12 11 11 11 11 11 11 11 11 11 11 11 11 11 11 11 11 11 11
14 14 14 13 13 13 13 13 13 13 13 12 12 12 12 12 12 12 12 12 12 12 12 12 11 11 11 11 11 11 11 11 11 11 11 11 11 11 11 11 11 11 11
14 13 13 13 13 13 13 13 12 12 12 12 12 12 12 12 12 12 12 12 12 12 11 11 11 11 11 11 11 11 11 11 11 11 10 10 10 10 10 10 11 11 11
13 13 13 13 13 13 12 12 12 12 12 12 12 12 12 12 12 12 12 12 12 12 11 11 11 11 11 11 11 11 11 11 11 11 10 10 10 10 10 10 10 10 10
13 13 12 12 12 12 12 12 12 12 12 12 11 11 11 11 11 11 11 11 11 11 11 11 11 11 11 11 11 11 10 10 10 10 10 10 10 10 10 10 10 10 10
12 12 12 12 12 12 11 11 11 11 11 11 11 11 11 11 11 11 11 11 11 11 11 11 11 11 11 11 11 10 10 10 10 10 10 10 10 10 10 10 10 10 10
12 12 12 12 11 11 11 11 11 11 11 11 11 11 11 11 11 11 11 11 11 11 11 11 11 11 11 11 10 10 10 10 10 10 10 10 10 10 10 10 9 9 9
12 11 11 11 11 11 11 11 11 10 10 10 10 10 10 10 10 10 10 11 11 11 10 10 10 10 10 10 10 10 10 10 10 10 9 9 10 10 9 9 9 9 9
11 11 11 10 10 10 10 10 10 10 10 10 10 10 10 10 10 10 10 10 10 10 10 10 10 10 10 10 10 10 10 9 9 9 9 9 9 9 9 9 9 9 9
11 10 10 10 10 10 10 9 9 10 10 9 9 9 9 9 9 9 9 10 10 10 10 10 10 10 10 9 9 9 9 9 9 9 9 9 9 9 9 9 9 9 9
Wind_Speed
2 2 2 2 2 3 3 3 3 4 4 4 5 5 5 5 5 5 5 7 8 8 8 8 8 8 7 7 7 6 5 5 5 4 3 3 3 3 2 2 2 1 1
4 3 3 2 2 4 4 4 4 4 3 4 4 4 5 5 5 5 5 5 6 7 7 8 8 8 7 7 6 6 5 4 4 4 4 3 3 3 2 2 1 1 2
6 4 3 3 2 5 6 5 5 4 4 4 4 3 3 4 4 4 4 4 5 6 6 7 7 7 7 6 6 6 5 4 4 4 3 3 2 2 2 1 2 2 2
7 5 4 3 3 5 4 4 3 3 3 3 3 2 2 2 3 3 4 4 4 4 4 5 6 6 6 6 6 5 4 4 4 3 3 2 2 2 2 2 2 2 2
7 6 4 3 5 4 3 3 3 3 3 3 2 2 2 2 1 2 3 3 3 3 3 3 4 5 4 4 4 4 4 3 3 3 2 2 1 1 1 2 2 2 2
7 7 4 4 5 4 3 3 3 3 2 2 3 3 2 2 2 2 2 2 2 2 3 3 3 3 3 3 3 4 4 3 3 2 2 1 1 1 1 1 1 2 2
6 6 4 4 4 3 3 3 3 3 2 2 3 3 4 3 3 2 1 1 1 2 3 3 3 3 2 2 2 2 2 2 1 1 1 2 1 1 1 1 1 2 2
5 5 5 4 4 3 3 3 3 2 1 2 3 3 3 4 3 2 2 1 1 1 2 2 3 2 2 2 1 1 1 1 1 1 1 1 1 1 2 2 2 2 2
4 4 5 4 3 3 3 3 3 4 2 1 1 3 3 2 2 3 2 1 1 1 0 1 2 2 2 2 1 0 1 1 1 1 1 1 2 2 2 2 3 3 3
3 4 4 4 3 3 3 3 3 3 3 1 1 1 2 3 2 1 3 2 2 1 1 0 1 2 2 2 2 1 1 1 2 2 2 2 2 2 3 3 3 3 3
1 3 4 3 3 2 3 3 3 3 3 3 2 1 1 1 2 2 1 3 3 2 1 1 1 1 2 2 2 2 2 2 2 2 2 2 3 3 3 3 3 3 3
0 1 2 2 2 2 3 3 3 4 3 3 2 2 2 2 1 2 2 2 2 3 2 1 0 1 2 2 3 3 3 2 2 2 3 3 3 4 4 4 4 3 4
0 1 1 1 2 2 3 3 3 3 3 3 3 2 2 2 2 2 2 1 1 2 2 1 2 1 2 2 3 3 3 3 3 2 3 3 3 4 4 4 4 4 4
2 2 2 2 2 2 2 3 3 2 3 3 3 3 2 2 2 2 3 2 0 2 2 3 2 2 2 3 3 3 3 4 4 3 3 3 3 4 4 4 4 4 4
1 2 2 2 1 2 2 3 2 2 2 2 3 3 2 2 2 2 2 3 4 2 3 3 2 2 3 3 3 3 3 4 5 5 4 4 3 4 5 5 5 5 5
1 2 1 1 1 1 2 2 1 2 2 2 2 2 2 2 2 2 2 2 3 4 3 3 3 2 2 2 3 3 4 4 5 5 5 5 4 4 4 5 5 5 4
1 1 2 2 2 2 2 2 2 2 2 2 2 2 2 2 2 2 2 2 2 3 3 3 2 1 1 2 1 3 4 4 5 6 5 5 5 4 4 4 4 3 2
1 1 1 1 1 1 2 3 3 2 2 2 3 2 2 2 2 2 2 2 3 3 4 3 2 1 2 2 2 2 2 3 4 6 6 6 5 5 4 4 3 3 2
0 0 1 1 1 1 2 3 3 2 2 3 3 3 3 3 3 2 2 3 3 3 3 3 3 2 2 1 1 2 2 2 3 5 5 6 6 6 5 4 4 3 2
1 1 0 1 1 0 1 1 2 2 2 3 3 3 4 4 5 4 3 4 3 2 2 2 2 2 2 1 0 1 2 2 3 3 3 5 6 6 6 5 4 4 3
1 0 1 0 0 0 1 1 2 2 2 2 2 3 4 4 4 4 3 4 3 3 3 2 2 1 2 1 2 2 2 2 3 2 2 2 3 3 4 6 5 5 4
1 1 1 1 0 0 1 0 0 1 1 1 2 3 3 2 3 4 4 4 5 5 5 4 3 4 5 4 3 2 2 0 2 2 1 3 1 2 3 5 6 6 5
1 1 1 1 1 2 2 1 0 1 1 2 2 2 2 2 2 2 3 3 4 6 7 6 6 6 6 5 4 3 3 3 4 3 1 2 1 3 4 6 6 6 6
1 0 1 1 1 3 3 2 1 1 1 2 2 2 2 3 3 2 1 2 3 4 5 6 6 7 6 6 6 6 5 3 2 1 2 2 2 2 3 4 6 6 6
0 0 0 1 2 3 4 3 1 0 1 2 2 2 2 3 4 3 2 2 4 4 5 6 7 7 7 7 5 3 2 1 2 2 2 2 2 2 2 3 5 6 6
0 1 1 1 1 3 4 3 1 0 1 2 2 2 3 3 4 3 2 3 4 4 3 3 3 4 4 5 6 6 5 4 2 3 3 3 2 1 2 2 2 4 5
Wind_Direction
127 119 101 94 88 85 88 88 86 85 86 87 85 89 91 93 92 86 88 99 103 103 102 102 99 97 95 91 92 93 92 91 93 99 109 106 102 97 96 90 74 54 34
126 115 103 92 87 90 90 92 94 91 83 84 79 83 95 96 94 87 81 89 99 104 103 103 100 96 97 95 90 87 80 80 87 92 94 93 87 78 77 59 39 10 347
122 114 103 89 82 86 86 84 79 79 82 78 75 74 90 94 97 96 88 88 92 103 106 105 100 98 96 96 92 87 83 77 85 89 92 91 77 70 63 47 33 23 14
116 111 102 98 99 91 88 89 82 76 70 72 68 61 79 83 88 97 96 95 94 98 103 107 107 105 100 95 87 83 85 82 88 94 91 86 79 74 57 36 18 17 12
118 114 107 108 105 93 83 93 84 92 84 73 78 61 57 74 75 101 96 103 110 108 103 106 117 115 107 97 85 75 74 74 83 90 90 83 72 66 53 27 14 4 356
118 117 114 109 107 97 81 82 88 76 88 88 81 58 36 32 47 68 94 93 104 111 111 102 107 117 113 108 93 77 66 66 70 69 68 57 46 32 14 357 355 348 346
122 120 115 112 110 111 116 113 102 83 57 68 70 38 13 17 33 33 48 70 72 97 111 113 115 116 112 110 109 90 60 46 45 38 26 9 353 351 342 321 311 328 334
128 129 126 129 124 116 108 108 108 99 54 60 103 84 23 358 354 5 17 46 32 80 106 121 120 118 122 114 121 91 32 16 19 354 347 347 334 326 310 310 310 325 339
125 128 136 138 136 134 143 146 136 126 127 19 87 131 135 218 305 333 350 360 357 43 106 125 131 147 157 152 162 150 337 324 328 324 307 305 311 328 326 316 308 309 314
126 131 134 140 146 149 156 169 151 141 136 141 15 68 147 159 151 312 328 331 334 316 260 182 152 164 175 166 182 206 247 273 285 301 295 280 288 305 306 316 306 300 304
108 129 133 137 150 161 164 159 145 145 149 155 161 141 86 76 108 150 262 314 334 305 272 240 166 166 185 183 190 209 213 226 249 274 282 292 285 278 283 291 297 299 289
8 114 131 134 152 160 165 169 165 157 162 155 151 147 150 154 180 166 199 252 284 294 297 280 216 190 191 201 211 210 197 212 235 265 265 280 291 281 276 284 285 288 286
204 218 148 156 162 172 169 162 161 166 168 163 171 175 173 185 177 164 161 205 265 294 321 313 277 213 209 204 217 214 215 224 242 262 273 272 283 292 288 288 287 281 279
202 190 172 169 181 171 161 156 159 175 168 174 188 181 176 202 176 168 166 158 168 313 311 284 293 257 236 214 223 220 231 242 242 249 270 278 279 287 289 285 288 284 285
196 172 167 167 183 165 146 150 160 181 169 184 194 191 190 203 180 188 171 165 162 200 264 268 271 273 245 219 223 221 232 249 248 242 252 270 276 291 296 293 291 288 284
184 152 153 168 176 159 140 143 167 190 165 191 196 188 202 206 192 185 180 176 170 175 219 248 243 256 252 233 239 226 238 251 248 245 246 253 260 279 302 315 312 307 290
165 158 163 158 178 192 176 159 174 173 179 206 213 199 220 213 197 202 187 170 177 168 201 254 256 267 232 262 273 244 244 240 244 246 247 252 262 274 283 298 306 325 313
181 158 141 145 177 183 175 164 176 173 187 214 230 214 233 229 223 221 201 196 200 192 186 215 240 252 247 244 263 278 261 245 238 246 252 255 260 272 285 289 294 308 318
78 62 114 147 194 191 175 178 176 178 193 217 224 215 224 211 227 231 218 214 217 204 184 188 221 229 256 268 291 297 301 283 255 252 257 258 258 264 276 278 283 286 290
99 78 224 187 185 190 163 186 179 185 211 228 232 227 227 219 221 220 217 218 210 194 185 187 220 236 246 261 243 277 303 298 286 271 262 256 255 263 265 268 276 276 272
104 129 97 67 126 159 196 204 203 211 222 239 258 251 243 242 234 227 220 212 200 197 191 200 222 230 240 230 237 232 246 281 294 275 274 267 251 253 258 257 264 268 267
51 58 60 62 28 295 323 250 188 183 203 228 269 283 275 266 267 261 247 228 207 201 203 202 215 221 236 229 222 217 208 245 283 278 228 259 212 251 262 252 264 265 265
58 40 12 28 354 319 332 329 326 170 195 235 243 257 280 295 279 273 278 277 250 232 213 203 211 224 223 219 202 210 211 206 232 247 193 248 233 248 264 261 266 261 259
105 50 6 341 332 332 342 343 352 159 216 252 239 225 248 273 280 258 254 287 279 267 241 224 220 228 227 219 203 207 211 213 262 273 162 217 248 254 276 264 265 256 256
29 2 346 336 326 323 344 347 6 280 278 283 277 267 258 258 282 272 230 252 277 284 275 253 244 239 237 228 200 160 158 160 250 258 208 194 239 277 281 271 270 264 259
267 353 356 323 309 313 338 344 322 239 281 295 306 302 286 285 290 272 227 228 254 271 278 281 271 264 254 239 215 199 191 193 206 242 222 189 217 189 299 283 277 271 260
Height
1526 1526 1526 1526 1526 1526 1525 1525 1525 1525 1525 1525 1524 1524 1525 1525 1525 1526 1526 1526 1526 1526 1525 1525 1525 1525 1525 1525 1525 1525 1525 1526 1525 1525 1525 1525 1525 1526 1526 1526 1526 1526 1526
1527 1526 1526 1526 1526 1526 1526 1526 1526 1525 1525 1525 1525 1525 1525 1526 1526 1526 1526 1526 1527 1526 1526 1526 1526 1526 1525 1525 1525 1525 1525 1525 1525 1525 1525 1525 1525 1525 1525 1525 1525 1525 1524
1527 1527 1527 1527 1527 1527 1527 1526 1526 1526 1526 1526 1526 1526 1526 1526 1527 1527 1527 1527 1527 1527 1527 1527 1526 1526 1526 1526 1526 1525 1525 1525 1525 1525 1525 1524 1524 1524 1524 1524 1524 1524 1523
1527 1527 1527 1527 1527 1527 1527 1527 1527 1526 1526 1526 1526 1526 1527 1527 1527 1527 1528 1528 1528 1528 1527 1527 1527 1527 1526 1526 1526 1525 1525 1525 1525 1524 1524 1524 1524 1524 1524 1523 1523 1523 1522
1527 1527 1527 1527 1527 1527 1527 1527 1527 1527 1526 1526 1526 1527 1527 1527 1527 1528 1528 1528 1528 1528 1528 1527 1527 1527 1527 1526 1526 1525 1525 1525 1524 1524 1524 1523 1523 1523 1523 1522 1522 1522 1521
1527 1527 1527 1527 1527 1527 1527 1527 1527 1526 1526 1526 1526 1527 1527 1527 1527 1528 1528 1528 1528 1528 1528 1527 1527 1527 1527 1526 1526 1525 1525 1524 1524 1523 1523 1523 1523 1522 1522 1521 1521 1521 1520
1527 1527 1527 1527 1527 1527 1527 1527 1526 1526 1526 1526 1526 1527 1527 1527 1527 1528 1528 1528 1528 1528 1527 1527 1527 1527 1526 1526 1525 1525 1524 1523 1523 1522 1522 1522 1522 1521 1521 1521 1520 1520 1519
1527 1527 1527 1527 1527 1527 1527 1527 1526 1526 1526 1526 1526 1526 1527 1528 1527 1527 1527 1527 1527 1527 1527 1527 1526 1526 1526 1525 1525 1524 1523 1522 1522 1521 1521 1521 1521 1520 1520 1520 1519 1519 1518
1527 1527 1527 1527 1527 1527 1526 1526 1526 1525 1525 1526 1526 1527 1526 1526 1527 1527 1527 1527 1527 1526 1526 1526 1526 1525 1525 1524 1524 1523 1522 1521 1521 1520 1520 1520 1519 1519 1519 1518 1517 1517 1516
1527 1527 1526 1526 1526 1526 1526 1525 1525 1525 1525 1525 1526 1526 1526 1526 1526 1526 1526 1526 1526 1526 1525 1525 1524 1524 1524 1523 1522 1522 1521 1520 1519 1519 1518 1518 1518 1517 1517 1516 1515 1515 1514
1526 1526 1525 1525 1525 1525 1524 1524 1524 1524 1524 1524 1525 1525 1525 1525 1525 1525 1524 1525 1525 1524 1524 1523 1523 1522 1522 1522 1521 1520 1519 1519 1518 1517 1517 1516 1515 1515 1514 1514 1513 1513 1512
1525 1524 1524 1524 1523 1523 1523 1523 1523 1523 1523 1523 1523 1524 1524 1524 1524 1524 1523 1523 1523 1523 1523 1522 1521 1521 1520 1520 1519 1519 1518 1517 1516 1515 1515 1514 1513 1513 1512 1511 1511 1510 1509
1523 1523 1522 1522 1522 1521 1521 1521 1521 1521 1522 1522 1522 1522 1522 1523 1523 1523 1522 1521 1521 1521 1521 1521 1520 1519 1519 1518 1518 1517 1516 1515 1514 1513 1512 1511 1511 1510 1509 1509 1508 1507 1507
1522 1521 1521 1520 1520 1520 1519 1519 1519 1520 1520 1520 1520 1520 1520 1521 1521 1521 1521 1520 1520 1520 1519 1519 1518 1518 1517 1517 1516 1515 1514 1513 1512 1511 1510 1509 1508 1508 1507 1506 1505 1504 1503
1520 1519 1519 1519 1518 1518 1517 1517 1517 1517 1518 1518 1518 1518 1518 1518 1518 1519 1519 1519 1519 1518 1517 1517 1516 1516 1516 1515 1514 1513 1512 1511 1510 1509 1508 1507 1506 1505 1504 1503 1501 1500 1499
1517 1517 1516 1516 1516 1515 1515 1515 1515 1515 1516 1516 1516 1516 1516 1516 1516 1516 1516 1517 1517 1517 1515 1515 1514 1514 1514 1513 1513 1511 1510 1509 1508 1507 1506 1505 1504 1503 1501 1500 1498 1495 1493
1515 1514 1514 1513 1513 1513 1512 1512 1512 1513 1513 1513 1514 1514 1514 1514 1514 1514 1514 1514 1514 1514 1513 1513 1513 1513 1512 1511 1510 1509 1508 1507 1506 1505 1504 1503 1502 1501 1499 1498 1495 1492 1490
1513 1512 1511 1511 1510 1510 1509 1509 1510 1510 1510 1510 1511 1511 1511 1511 1511 1511 1511 1511 1511 1511 1511 1510 1510 1510 1510 1509 1508 1507 1506 1505 1504 1503 1502 1501 1500 1499 1498 1496 1494 1492 1490
1510 1509 1509 1508 1508 1507 1507 1507 1507 1507 1508 1508 1508 1508 1508 1509 1508 1508 1508 1508 1508 1508 1508 1508 1507 1507 1507 1507 1506 1505 1504 1503 1502 1501 1500 1499 1498 1497 1496 1494 1493 1491 1490
1507 1507 1506 1506 1505 1505 1505 1505 1505 1505 1505 1505 1505 1506 1506 1506 1506 1505 1505 1505 1505 1505 1505 1505 1504 1504 1504 1504 1503 1502 1501 1500 1499 1499 1498 1497 1496 1495 1494 1493 1492 1491 1490
1504 1504 1503 1503 1503 1502 1502 1502 1502 1502 1502 1502 1502 1502 1503 1503 1502 1502 1502 1502 1502 1501 1501 1501 1501 1501 1500 1500 1500 1499 1498 1498 1497 1496 1495 1494 1494 1493 1492 1491 1490 1489 1489
1501 1501 1500 1500 1500 1500 1500 1500 1500 1499 1499 1499 1499 1499 1499 1499 1499 1499 1499 1499 1499 1498 1498 1498 1497 1497 1497 1497 1497 1496 1496 1495 1493 1494 1493 1492 1491 1491 1490 1490 1489 1488 1487
1498 1498 1497 1497 1497 1497 1497 1497 1497 1496 1496 1496 1495 1495 1495 1495 1495 1495 1495 1495 1495 1495 1495 1495 1494 1494 1494 1494 1494 1493 1493 1492 1491 1491 1490 1489 1489 1488 1488 1487 1486 1486 1485
1496 1495 1495 1494 1494 1493 1493 1493 1493 1493 1492 1492 1492 1492 1492 1492 1492 1491 1491 1491 1491 1491 1491 1491 1491 1491 1491 1491 1491 1490 1490 1489 1488 1488 1487 1486 1486 1485 1485 1485 1484 1484 1483
1494 1493 1492 1491 1491 1490 1490 1490 1490 1489 1489 1488 1489 1488 1488 1488 1488 1488 1488 1487 1487 1487 1487 1487 1487 1487 1487 1487 1487 1487 1486 1485 1484 1484 1484 1483 1482 1482 1482 1482 1482 1481 1480
1491 1491 1490 1489 1488 1487 1487 1487 1487 1486 1485 1485 1485 1484 1484 1484 1484 1484 1484 1483 1483 1483 1483 1482 1482 1482 1482 1482 1482 1482 1482 1481 1481 1480 1480 1480 1479 1479 1478 1478 1478 1478 1478